Regional Weather Roundup
Issued by NWS

Home | Current Version | Previous Version | Graphics & Text | Print | Product List | Glossary On
Versions: 1 2 3 4 5 6 7 8 9 10 11 12 13 14 15 16 17 18 19 20 21 22 23 24 25 26 27 28 29 30 31 32 33 34 35 36 37 38 39 40 41 42 43 44 45 46 47 48 49 50
000
ASUS43 KLOT 271708
RWRIL

ILLINOIS REGIONAL WEATHER ROUNDUP
NATIONAL WEATHER SERVICE CHICAGO/ROMEOVILLE IL
1200 PM CDT FRI MAR 27 2015

NOTE: "FAIR" INDICATES FEW OR NO CLOUDS BELOW 12,000 FEET WITH NO
SIGNIFICANT WEATHER AND/OR OBSTRUCTIONS TO VISIBILITY.

* THESE STATIONS ARE NOT UNDER NWS QUALITY CONTROL. THEY ALSO MAY NOT
  REPORT WEATHER SUCH AS PRECIPITATION OR FOG.

ILZ001-002-007-009-015-016-024-271800-
NORTHWEST ILLINOIS

CITY           SKY/WX    TMP DP  RH WIND       PRES   REMARKS
MOLINE         SUNNY     32   8  36 NE14      30.23S WCI  22
STERLING*      SUNNY     32  10  40 N12G20    30.22S WCI  23
SAVANNA*       SUNNY     32   6  33 N9G16     30.23F WCI  24
$$

ILZ003-004-008-010-011-017-018-271800-
NORTH CENTRAL ILLINOIS

CITY           SKY/WX    TMP DP  RH WIND       PRES   REMARKS
ROCKFORD       MOSUNNY   28   6  38 N17       30.20F WCI  16
FREEPORT*      CLOUDY    26  10  50 N12G17    30.22F WCI  16
ROCHELLE*      MOSUNNY   28  10  47 N15G22    30.19F WCI  17
DE KALB*       MOSUNNY   27  10  48 N18G24    30.17F WCI  14
PERU*          SUNNY     30  10  42 N15G21    30.20F WCI  19
$$

ILZ005-006-012>014-019>023-271800-
NORTHEAST ILLINOIS

CITY           SKY/WX    TMP DP  RH WIND       PRES   REMARKS
CHICAGO-OHARE  MOSUNNY   27   9  46 N15       30.16F WCI  15
CHICAGO-MIDWAY PTSUNNY   28  12  51 N14G25    30.17S WCI  17
AURORA         SUNNY     29   5  36 N16G26    30.17F WCI  17
LANSING*       FLURRIES  26  13  57 N14G21    30.16S WCI  15
JOLIET*        SUNNY     30  11  45 NE18      30.17F WCI  18
WAUKEGAN       MOSUNNY   26  12  55 N13G21    30.17S WCI  15
DUPAGE AIRPORT SUNNY     29   4  34 N16G22    30.16S WCI  17
KANKAKEE*      MOSUNNY   31  14  49 N13       30.16S WCI  21
WHEELING       MOSUNNY   27   7  42 N14G23    30.19S WCI  16
MORRIS*        SUNNY     31   7  37 N8G20     30.17S WCI  23
ROMEOVILLE*    SUNNY     28  11  49 NE14G22   30.17S WCI  17
NORTHERLY ISL    N/A     26  16  65 MISG        N/A
$$

LMZ740>746-271800-
SOUTHERN LAKE MICHIGAN

STATION/POSITION SKY/WX   TEMP    WIND        PRES    VSBY  WAVE
                          AIR SEA DIR/SP/G                  HT/PER
                          (F)     (DEG/KT/KT) (MB)    (MI)  (FT/S)
HARRISON CRIB              23     340/ 23/ 27   N/A
BURNHAM HARBOR             26     340/ 14/ 20   N/A
CALUMET HARBOR             25     330/ 17/ 25 1020.3R
BURNS HARBOR               25     340/ 22/ 51 1021.0S
MICHIGAN CITY              24     350/ 22/ 31   N/A
$$

ILZ025>027-034>036-040-047-049-050-058-095>099-271800-
WEST-CENTRAL ILLINOIS

CITY           SKY/WX    TMP DP  RH WIND       PRES   REMARKS
QUINCY         CLOUDY    36  23  59 NE9       30.21S WCI  29
GALESBURG*     SUNNY     33  13  43 N13G18    30.21S WCI  24
MACOMB*        PTSUNNY   35  17  47 N17G23    30.23F WCI  24
JACKSONVILLE*  PTSUNNY   37  19  47 NW14G20   30.19F WCI  29
PITTSFIELD*    CLOUDY    36  21  54 N13       30.21S WCI  28
$$

ILZ028>032-037-038-041>044-048-051>054-059>061-271800-
CENTRAL ILLINOIS

CITY           SKY/WX    TMP DP  RH WIND       PRES   REMARKS
PONTIAC        MOSUNNY   32  15  48 N16G22    30.17S WCI  21
BLOOMINGTON    MOSUNNY   33  13  44 N16G24    30.16S WCI  22
DECATUR        MOSUNNY   38  13  35 N17G24    30.16S WCI  28
PEORIA         SUNNY     33  11  39 N13G23    30.19F WCI  24
LACON*         SUNNY     31   7  36 N12G21    30.20S WCI  21
LINCOLN*       SUNNY     37  17  44 N12G21    30.18F WCI  29
SPRINGFIELD    PTSUNNY   38  17  42 N16G22    30.19S WCI  29
TAYLORVILLE    PTSUNNY   34  21  60 N17       30.17F WCI  23
$$

ILZ033-039-045-046-055>057-062-063-271800-
EAST-CENTRAL ILLINOIS

CITY           SKY/WX    TMP DP  RH WIND       PRES   REMARKS
CHAMPAIGN      FLURRIES  32  21  64 N15       30.14R WCI  22
DANVILLE*      FLURRIES  30  24  76 N14G21    30.10S WCI  20
RANTOUL*       FLURRIES  31  25  76 N13       30.14S WCI  22
MATTOON        PTSUNNY   34  20  56 N18       30.12S WCI  23
PARIS*         CLOUDY    33  26  74 N7G17     30.12S WCI  27
$$

ILZ079-100>102-271800-
SOUTHWEST ILLINOIS

CITY           SKY/WX    TMP DP  RH WIND       PRES   REMARKS
ALTON          CLOUDY    36  19  51 N6        30.19S WCI  31
BELLEVILLE     CLOUDY    39  23  53 N15       30.17S WCI  30
CAHOKIA*       CLOUDY    37  24  59 N13       30.19S WCI  29
SPARTA*        CLOUDY    36  27  69 N14G21    30.17R WCI  27
$$

ILZ064>066-069>071-074>076-080>082-084>086-088>090-092>094-271800-
SOUTH-CENTRAL ILLINOIS

CITY           SKY/WX    TMP DP  RH WIND       PRES   REMARKS
CARBONDALE     CLOUDY    37  29  72 N14       30.14S WCI  28
CAIRO*         CLOUDY    39  34  83 N10       30.13S WCI  32
EFFINGHAM*     CLOUDY    36  17  46 NW12G21   30.16S WCI  28
MARION         CLOUDY    39  30  70 N15       30.14S WCI  31
MT. VERNON     CLOUDY    36  25  64 N9        30.14S WCI  29
CENTRALIA*     CLOUDY    37  24  61 N12G20    30.14S WCI  29
SALEM*         CLOUDY    39  26  59 N15G21    30.15S WCI  31
METROPOLIS*    CLOUDY    39  35  83 NW7       30.11S WCI  34
$$

ILZ067-068-072-073-078-083-087-091-271800-
SOUTHEAST ILLINOIS

CITY           SKY/WX    TMP DP  RH WIND       PRES   REMARKS
LAWRENCEVILLE  FLURRIES  36  27  69 N15       30.12S WCI  27
FLORA*         CLOUDY    36  25  64 N13       30.14S WCI  27
FAIRFIELD*     CLOUDY    37  30  76 N12       30.12S WCI  29
HARRISBURG*    CLOUDY    38  31  76 N10       30.14R WCI  31
ROBINSON*      CLOUDY    35  25  67 N13       30.13S WCI  26
CARMI*         CLOUDY    38  30  71 N20       30.11R WCI  28
$$

ABBREVIATIONS USED IN REMARKS
   TC - TEMPERATURE IN CELSIUS
  WCI - WIND CHILL INDEX
   HX - HEAT INDEX
  VSB - VISIBILITY
$$




USA.gov is the U.S. government's official web portal to all federal, state and local government web resources and services.